Regional Weather Roundup
Issued by NWS

Home | Current Version | Previous Version | Graphics & Text | Print | Product List | Glossary On
Versions: 1 2 3 4 5 6 7 8 9 10 11 12 13 14 15 16 17 18 19 20 21 22 23 24 25 26 27 28 29 30 31 32 33 34 35 36 37 38 39 40 41 42 43 44 45 46 47 48 49 50
000
ASUS43 KLOT 241006
RWRIL

ILLINOIS REGIONAL WEATHER ROUNDUP
NATIONAL WEATHER SERVICE CHICAGO/ROMEOVILLE IL
500 AM CDT THU APR 24 2014

NOTE: "FAIR" INDICATES FEW OR NO CLOUDS BELOW 12,000 FEET WITH NO
SIGNIFICANT WEATHER AND/OR OBSTRUCTIONS TO VISIBILITY.

* THESE STATIONS ARE NOT UNDER NWS QUALITY CONTROL. THEY ALSO MAY NOT
  REPORT WEATHER SUCH AS PRECIPITATION OR FOG.

ILZ001-002-007-009-015-016-024-241100-
NORTHWEST ILLINOIS

CITY           SKY/WX    TMP DP  RH WIND       PRES   REMARKS
MOLINE         CLOUDY    44  37  76 E15       29.89F
STERLING*      CLOUDY    41  34  75 E16       29.94F
SAVANNA*       CLOUDY    41  34  76 E13       29.93F
$$

ILZ003-004-008-010-011-017-018-241100-
NORTH CENTRAL ILLINOIS

CITY           SKY/WX    TMP DP  RH WIND       PRES   REMARKS
ROCKFORD       CLOUDY    40  32  73 E15G23    30.01F
FREEPORT*      CLOUDY    36  32  88 E9        29.99F WCI  29
ROCHELLE*      CLOUDY    40  34  79 E15       29.99F
DE KALB*       CLOUDY    39  32  78 E13       30.01F WCI  31
PERU*          CLOUDY    44  37  75 E10       29.99F
$$

ILZ005-006-012>014-019>023-241100-
NORTHEAST ILLINOIS

CITY           SKY/WX    TMP DP  RH WIND       PRES   REMARKS
CHICAGO-OHARE  CLOUDY    41  31  67 E8        30.05F
CHICAGO-MIDWAY CLOUDY    43  36  76 NE6       30.06S
AURORA         CLOUDY    42  33  70 E9        30.02F
LANSING*       MOCLDY    42  36  79 NE7       30.06S
JOLIET*        CLOUDY    44  35  71 E7        30.04S
WAUKEGAN       CLOUDY    37  32  82 NE5       30.06F WCI  33
DUPAGE AIRPORT CLOUDY    41  32  70 E12       30.02F
KANKAKEE*      CLOUDY    45  39  79 E6        30.04R
WHEELING       LGT RAIN  41  33  73 NE9       30.06F
MORRIS*        CLOUDY    44  35  70 E7        30.02F
NORTHERLY ISL    N/A     41  33  73 N10         N/A
$$

LMZ740>746-241100-
SOUTHERN LAKE MICHIGAN

STATION/POSITION SKY/WX   TEMP    WIND        PRES    VSBY  WAVE
                          AIR SEA DIR/SP/G                  HT/PER
                          (F)     (DEG/KT/KT) (MB)    (MI)  (FT/S)
WAUKEGAN HARBOR            40      10/  9/ 12 1019.6F
HARRISON CRIB              39      20/ 13/ 14   N/A
BURNHAM HARBOR             41      10/  8/ 14   N/A
CALUMET HARBOR             40     360/  9/ 12 1018.9F
MICHIGAN CITY              45     360/  3/  4   N/A
$$

ILZ025>027-034>036-040-047-049-050-058-095>099-241100-
WEST-CENTRAL ILLINOIS

CITY           SKY/WX    TMP DP  RH WIND       PRES   REMARKS
QUINCY         CLEAR     51  34  52 SE15      29.83F
GALESBURG*     CLOUDY    45  40  82 E14G20    29.89F
MACOMB*        PTCLDY    48  34  58 SE15      29.90F
JACKSONVILLE*  MOCLDY    46  35  65 E12       29.91S
PITTSFIELD*    PTCLDY    51  34  53 E9        29.88S
$$

ILZ028>032-037-038-041>044-048-051>054-059>061-241100-
CENTRAL ILLINOIS

CITY           SKY/WX    TMP DP  RH WIND       PRES   REMARKS
PONTIAC        CLOUDY    46  41  81 E9        30.01S
BLOOMINGTON    CLOUDY    45  40  82 E9        30.00S
DECATUR        CLOUDY    51  35  54 E8        29.97S
PEORIA         CLOUDY    50  38  63 E10       29.95F
LACON*         CLOUDY    43  38  82 E13G24    29.97F
LINCOLN*       CLOUDY    50  35  55 E7        29.96S
SPRINGFIELD    MOCLDY    52  34  50 E12       29.94S
TAYLORVILLE    MOCLDY    50  34  53 SE6       29.95R
$$

ILZ033-039-045-046-055>057-062-063-241100-
EAST-CENTRAL ILLINOIS

CITY           SKY/WX    TMP DP  RH WIND       PRES   REMARKS
CHAMPAIGN      CLOUDY    47  39  74 E9        29.99R
RANTOUL*       CLOUDY    52  37  56 CALM      30.01R
MATTOON        CLOUDY    51  33  50 SE10      29.96R
PARIS*         MOCLDY    50  37  60 E7        30.00S
$$

ILZ079-100>102-241100-
SOUTHWEST ILLINOIS

CITY           SKY/WX    TMP DP  RH WIND       PRES   REMARKS
ALTON          PTCLDY    50  37  59 E7        29.91S
BELLEVILLE     PTCLDY    48  38  67 SE7       29.90F
CAHOKIA*       PTCLDY    52  36  54 S3        29.90S
SPARTA*        MOCLDY    50  36  57 SE9       29.92S
$$

ILZ064>066-069>071-074>076-080>082-084>086-088>090-092>094-241100-
SOUTH-CENTRAL ILLINOIS

CITY           SKY/WX    TMP DP  RH WIND       PRES   REMARKS
CARBONDALE     MOCLDY    52  35  52 SE5       29.92F
CAIRO*         MOCLDY    55  38  52 E7        29.93S
MARION         MOCLDY    54  36  50 SE7       29.93F
MT. VERNON     MOCLDY    52  30  43 SE7       29.94S
CENTRALIA*     MOCLDY    53  33  48 SE10      29.93S
SALEM*         MOCLDY    54  37  52 SE6       29.94S
METROPOLIS*    MOCLDY    50  34  53 SE5       29.93F
$$

ILZ067-068-072-073-078-083-087-091-241100-
SOUTHEAST ILLINOIS

CITY           SKY/WX    TMP DP  RH WIND       PRES   REMARKS
FLORA*         MOCLDY    49  37  61 SE8       29.97R
FAIRFIELD*     MOCLDY    52  39  62 SE8       29.95F
HARRISBURG*    PTCLDY    51  38  63 E6        29.95F
ROBINSON*      MOCLDY    50  38  64 SE7       30.00S
CARMI*         MOCLDY    50  41  72 E8        29.96F
$$

ABBREVIATIONS USED IN REMARKS
   TC - TEMPERATURE IN CELSIUS
  WCI - WIND CHILL INDEX
   HX - HEAT INDEX
  VSB - VISIBILITY
$$




USA.gov is the U.S. government's official web portal to all federal, state and local government web resources and services.